Location: Northcutt
(34.7304°N, 84.4305°W)
Time: 19:30:23
(UTC+00:00)

Transit 2A Rocket - Pass Details

Date: 05 October 2022
Orbit: 589 x 911 km, 66.7° (Epoch: 03 December)

Event Time Altitude Azimuth Distance (km) Brightness Sun altitude
Rises 21:05:30 0° 314° (NW) 3,114 8.4 24.9°
Reaches altitude 10° 21:08:22 10° 296° (WNW) 2,252 8.1 24.4°
Maximum altitude 21:11:57 19° 252° (WSW) 1,775 9.6 23.7°
Drops below altitude 10° 21:15:43 10° 209° (SSW) 2,393 8.5 23.0°
Sets 21:18:54 0° 192° (SSW) 3,380 8.8 22.4°
